User: anonymous   Login
Location: Caltech
(34.1382°N, 118.1253°W)
Time: 00:41:30
(UTC-07:00)
Language:

GPS 2-04 Rocket1 - Orbit

View from above orbital plane
View from above orbital plane
View from above satellite
View from above satellite

Ground track
Ground track

The orbit data is extracted from the following two-line orbital elements,

1 20303U 89085B   17228.78307340 +.00001085 +00000-0 +40036-4 0  9991
2 20303 035.6305 021.0093 0106666 347.0344 012.7648 15.23668255510330
Epoch (UTC): 16 August 2017 18:47:37
Eccentricity: 0.0106666
inclination: 35.6305°
perigee height: 421 km
apogee height: 568 km
right ascension of ascending node: 21.0093°
argument of perigee: 347.0344°
revolutions per day: 15.23668255
mean anomaly at epoch: 12.7648°
orbit number at epoch: 51033

The dashed part of the orbit path shows where the satellite is in the earth's shadow,  

DLR